Weather History for KFFL - November, 2012

Change the Weather History Date:

Sunday, November 25, 2012

  Actual Average Record
Temperature  
Mean Temperature 34 °F -  
Max Temperature 41 °F 42 °F 62 °F (1998)
Min Temperature 28 °F 27 °F 0 °F (1977)
Degree Days  
Heating Degree Days 30    
Moisture  
Dew Point 25 °F    
Average Humidity 64    
Maximum Humidity 80    
Minimum Humidity 45    
Precipitation  
Precipitation 0.00 in - - ()
Sea Level Pressure  
Sea Level Pressure 29.96 in    
Wind  
Wind Speed 7 mph (WNW)    
Max Wind Speed 17 mph    
Max Gust Speed -    
Visibility 10 miles    
Events      
Averages and records for this station are not official NWS values.
T = Trace of Precipitation, MM = Missing Value Source: NWS Daily Summary

Daily Weather History Graph

Daily Weather History Graph

Search for Another Location

Airport or City:

Trip Planner

Search our weather history database for the weather conditions in past years. The results will help you decide how hot, cold, wet, or windy it might be!

Date:

Astronomy

Nov. 25, 2012 Rise Set
Actual Time 7:07 AM CST 4:42 PM CST
Civil Twilight 6:37 AM CST 5:12 PM CST
Nautical Twilight 6:03 AM CST 5:46 PM CST
Astronomical Twilight 5:30 AM CST 6:19 PM CST
Moon 3:00 PM CST (11/25) 4:21 AM CST (11/25)
Length of Visible Light 10h 35m
Length of Day
9h 34m
Waxing Gibbous, 93% of the Moon is Illuminated
Nov 25
Waxing Gibbous
Nov 28
Full
Dec 6
Last Quarter
Dec 13
New
Dec 19
First Quarter

Hourly Weather History & Observations

Time (CST) Temp. Windchill Dew Point Humidity Pressure Visibility Wind Dir Wind Speed Gust Speed Precip Events Conditions
12:15 AM 32.0 °F 24.2 °F 21.2 °F 64% 29.88 in 10.0 mi South 9.2 mph - N/A   Scattered Clouds
12:35 AM 32.0 °F 25.6 °F 21.2 °F 64% 29.88 in 10.0 mi South 6.9 mph - N/A   Scattered Clouds
12:55 AM 32.0 °F 26.4 °F 21.2 °F 64% 29.87 in 10.0 mi South 5.8 mph - N/A   Clear
1:15 AM 33.8 °F 27.0 °F 21.2 °F 60% 29.86 in 10.0 mi South 8.1 mph - N/A   Scattered Clouds
1:35 AM 33.8 °F 28.6 °F 21.2 °F 60% 29.86 in 10.0 mi South 5.8 mph - N/A   Scattered Clouds
1:55 AM 33.8 °F 27.7 °F 21.2 °F 60% 29.86 in 10.0 mi SSW 6.9 mph - N/A   Mostly Cloudy
2:35 AM 33.8 °F 27.0 °F 21.2 °F 60% 29.86 in 10.0 mi SSW 8.1 mph - N/A   Scattered Clouds
2:55 AM 33.8 °F 28.6 °F 23.0 °F 65% 29.85 in 10.0 mi SSW 5.8 mph - N/A   Clear
3:15 AM 33.8 °F 27.7 °F 23.0 °F 65% 29.86 in 10.0 mi SW 6.9 mph - N/A   Clear
3:35 AM 33.8 °F 27.0 °F 23.0 °F 65% 29.86 in 10.0 mi SW 8.1 mph - N/A   Clear
3:55 AM 33.8 °F 27.0 °F 23.0 °F 65% 29.85 in 10.0 mi SW 8.1 mph - N/A   Clear
4:15 AM 33.8 °F 27.7 °F 23.0 °F 65% 29.85 in 10.0 mi SW 6.9 mph - N/A   Clear
4:35 AM 33.8 °F 28.6 °F 23.0 °F 65% 29.85 in 10.0 mi SW 5.8 mph - N/A   Clear
4:55 AM 33.8 °F 27.7 °F 23.0 °F 65% 29.86 in 10.0 mi WSW 6.9 mph - N/A   Clear
5:15 AM 33.8 °F 28.6 °F 24.8 °F 70% 29.86 in 10.0 mi WSW 5.8 mph - N/A   Clear
5:35 AM 33.8 °F 28.6 °F 24.8 °F 70% 29.87 in 10.0 mi WSW 5.8 mph - N/A   Clear
5:55 AM 33.8 °F 29.6 °F 24.8 °F 70% 29.88 in 10.0 mi WSW 4.6 mph - N/A   Clear
6:15 AM 33.8 °F 29.6 °F 24.8 °F 70% 29.88 in 10.0 mi WSW 4.6 mph - N/A   Clear
6:35 AM 33.8 °F 29.6 °F 24.8 °F 70% 29.89 in 10.0 mi WSW 4.6 mph - N/A   Clear
6:55 AM 33.8 °F 28.6 °F 24.8 °F 70% 29.88 in 10.0 mi West 5.8 mph - N/A   Clear
7:15 AM 33.8 °F 27.7 °F 24.8 °F 70% 29.90 in 10.0 mi WNW 6.9 mph - N/A   Clear
7:35 AM 35.6 °F 29.9 °F 24.8 °F 65% 29.91 in 10.0 mi WNW 6.9 mph - N/A   Clear
7:55 AM 35.6 °F 29.9 °F 24.8 °F 65% 29.92 in 10.0 mi WNW 6.9 mph - N/A   Clear
8:15 AM 35.6 °F 30.7 °F 24.8 °F 65% 29.92 in 10.0 mi WNW 5.8 mph - N/A   Clear
8:35 AM 35.6 °F 29.2 °F 24.8 °F 65% 29.92 in 10.0 mi NW 8.1 mph - N/A   Clear
8:55 AM 37.4 °F 30.3 °F 24.8 °F 60% 29.93 in 10.0 mi NW 10.4 mph - N/A   Clear
9:15 AM 37.4 °F 30.8 °F 24.8 °F 60% 29.94 in 10.0 mi NW 9.2 mph - N/A   Clear
9:35 AM 37.4 °F 30.3 °F 23.0 °F 56% 29.95 in 10.0 mi NNW 10.4 mph - N/A   Clear
9:55 AM 39.2 °F 32.5 °F 23.0 °F 52% 29.96 in 10.0 mi NNW 10.4 mph - N/A   Clear
10:15 AM 41.0 °F 32.5 °F 21.2 °F 45% 29.96 in 10.0 mi NNW 17.3 mph - N/A   Clear
10:35 AM 39.2 °F 31.2 °F 21.2 °F 49% 29.96 in 10.0 mi NNW 13.8 mph - N/A   Clear
10:55 AM 39.2 °F 33.0 °F 24.8 °F 56% 29.97 in 10.0 mi NW 9.2 mph - N/A   Clear
11:15 AM 39.2 °F 33.6 °F 26.6 °F 61% 29.97 in 10.0 mi NW 8.1 mph - N/A   Clear
11:35 AM 39.2 °F 33.6 °F 26.6 °F 61% 29.96 in 10.0 mi NW 8.1 mph - N/A   Clear
11:55 AM 41.0 °F 35.2 °F 26.6 °F 57% 29.96 in 10.0 mi NW 9.2 mph - N/A   Clear
12:15 PM 41.0 °F 35.2 °F 26.6 °F 57% 29.95 in 10.0 mi NNW 9.2 mph - N/A   Clear
12:35 PM 41.0 °F 35.8 °F 26.6 °F 57% 29.96 in 10.0 mi NW 8.1 mph - N/A   Clear
12:55 PM 41.0 °F 34.7 °F 26.6 °F 57% 29.96 in 10.0 mi NW 10.4 mph - N/A   Clear
1:15 PM 41.0 °F 35.8 °F 26.6 °F 57% 29.95 in 10.0 mi NW 8.1 mph - N/A   Clear
1:35 PM 41.0 °F 35.2 °F 26.6 °F 57% 29.95 in 10.0 mi NW 9.2 mph - N/A   Clear
1:55 PM 41.0 °F 34.7 °F 26.6 °F 57% 29.95 in 10.0 mi NNW 10.4 mph - N/A   Clear
2:15 PM 41.0 °F 35.2 °F 26.6 °F 57% 29.95 in 10.0 mi NW 9.2 mph - N/A   Scattered Clouds
2:35 PM 41.0 °F 34.7 °F 26.6 °F 57% 29.96 in 10.0 mi NW 10.4 mph - N/A   Mostly Cloudy
2:55 PM 41.0 °F 34.3 °F 26.6 °F 57% 29.97 in 10.0 mi NW 11.5 mph - N/A   Overcast
3:15 PM 41.0 °F 34.7 °F 26.6 °F 57% 29.98 in 10.0 mi NNW 10.4 mph - N/A   Overcast
3:35 PM 39.2 °F 33.6 °F 26.6 °F 61% 29.98 in 10.0 mi NNW 8.1 mph - N/A   Overcast
3:55 PM 39.2 °F 32.5 °F 26.6 °F 61% 29.99 in 10.0 mi NNW 10.4 mph - N/A   Mostly Cloudy
4:15 PM 39.2 °F 33.6 °F 24.8 °F 56% 29.98 in 10.0 mi NNW 8.1 mph - N/A   Scattered Clouds
4:35 PM 37.4 °F 32.1 °F 26.6 °F 65% 29.99 in 10.0 mi NNW 6.9 mph - N/A   Scattered Clouds
4:55 PM 37.4 °F 30.8 °F 24.8 °F 60% 29.98 in 10.0 mi North 9.2 mph - N/A   Mostly Cloudy
5:15 PM 37.4 °F 30.3 °F 24.8 °F 60% 30.00 in 10.0 mi NNW 10.4 mph - N/A   Scattered Clouds
5:35 PM 37.4 °F 31.4 °F 24.8 °F 60% 30.00 in 10.0 mi NNW 8.1 mph - N/A   Clear
5:55 PM 35.6 °F 29.9 °F 26.6 °F 70% 30.02 in 10.0 mi NNW 6.9 mph - N/A   Mostly Cloudy
6:15 PM 35.6 °F 28.6 °F 24.8 °F 65% 30.03 in 10.0 mi NNW 9.2 mph - N/A   Overcast
6:35 PM 35.6 °F 29.9 °F 24.8 °F 65% 30.03 in 10.0 mi NNW 6.9 mph - N/A   Overcast
6:55 PM 35.6 °F 29.9 °F 24.8 °F 65% 30.04 in 10.0 mi NNW 6.9 mph - N/A   Scattered Clouds
7:15 PM 35.6 °F 32.8 °F 24.8 °F 65% 30.05 in 10.0 mi NNW 3.5 mph - N/A   Clear
7:35 PM 35.6 °F 31.7 °F 24.8 °F 65% 30.05 in 10.0 mi NNW 4.6 mph - N/A   Mostly Cloudy
7:55 PM 33.8 °F 30.8 °F 24.8 °F 70% 30.06 in 10.0 mi NW 3.5 mph - N/A   Overcast
8:15 PM 33.8 °F - 24.8 °F 70% 30.06 in 10.0 mi Calm Calm - N/A   Overcast
8:35 PM 33.8 °F - 24.8 °F 70% 30.06 in 10.0 mi Calm Calm - N/A   Overcast
8:55 PM 33.8 °F - 24.8 °F 70% 30.07 in 10.0 mi Calm Calm - N/A   Overcast
9:15 PM 33.8 °F - 24.8 °F 70% 30.08 in 10.0 mi Calm Calm - N/A   Scattered Clouds
9:35 PM 33.8 °F - 24.8 °F 70% 30.08 in 10.0 mi Calm Calm - N/A   Scattered Clouds
9:55 PM 30.2 °F 26.7 °F 24.8 °F 80% 30.09 in 10.0 mi WNW 3.5 mph - N/A   Scattered Clouds
10:15 PM 30.2 °F 26.7 °F 24.8 °F 80% 30.09 in 10.0 mi WNW 3.5 mph - N/A   Mostly Cloudy
10:35 PM 30.2 °F 26.7 °F 24.8 °F 80% 30.10 in 10.0 mi WNW 3.5 mph - N/A   Scattered Clouds
10:55 PM 30.2 °F 26.7 °F 24.8 °F 80% 30.10 in 10.0 mi WNW 3.5 mph - N/A   Clear
11:15 PM 28.4 °F 22.2 °F 23.0 °F 80% 30.11 in 10.0 mi NW 5.8 mph - N/A   Scattered Clouds
11:35 PM 30.2 °F 25.4 °F 24.8 °F 80% 30.12 in 10.0 mi NW 4.6 mph - N/A   Scattered Clouds
11:55 PM 30.2 °F 24.3 °F 24.8 °F 80% 30.13 in 10.0 mi NNW 5.8 mph - N/A   Clear